Deptford, New Jersey, United States
Lat: 39.83N, Lon: 75.13W
Wx Zone: NJZ017
Local Info
Past Weather Observations for Wednesday, October 15, 2014

NOTE: This archive is for the closest National Weather Service station to Deptford. Information may differ from the station used for current weather conditions.

Click here for Long-term Archive

Time Weather Temperature Dewpoint Humidity Pressure Winds Precip Visibility
23:54
Overcast
72°F / 22°C 66°F / 19°C 83% 29.77 in
(1008 mb)
SSE 10.4 mph
(SSE 17 kph)
0.00 in
(0.00 mm)
8SM
23:29
Overcast
72°F / 22°C 66°F / 19°C 83% 29.77 in
(1008 mb)
SSE 12.7 mph
(SSE 20 kph)
- 8SM
23:08
Overcast
72°F / 22°C 66°F / 19°C 83% 29.77 in
(1008 mb)
SSE 11.5 mph
(SSE 19 kph)
- 10SM
22:50
Overcast
72°F / 22°C 68°F / 20°C 88% 29.77 in
(1008 mb)
SSE 10.4 mph
(SSE 17 kph)
- 9SM
22:20
Overcast
72°F / 22°C 68°F / 20°C 88% 29.8 in
(1009 mb)
SE 8.1 mph
(SE 13 kph)
- 7SM
21:54
Overcast
72°F / 22°C 68°F / 20°C 88% 29.8 in
(1009 mb)
SSE 9.2 mph
(SSE 15 kph)
0.01 in
(0.25 mm)
7SM
21:42
Overcast
Light Rain
72°F / 22°C 68°F / 20°C 88% 29.8 in
(1009 mb)
SSE 8.1 mph
(SSE 13 kph)
0.01 in
(0.25 mm)
8SM
21:05
Overcast
72°F / 22°C 68°F / 20°C 88% 29.83 in
(1010 mb)
SSE 4.6 mph
(SSE 7 kph)
- 10SM
20:54
Overcast
70°F / 21°C 68°F / 20°C 94% 29.83 in
(1010 mb)
SE 6.9 mph
(SE 11 kph)
0.01 in
(0.25 mm)
10SM
20:37
Overcast
Light Rain
70°F / 21°C 68°F / 20°C 94% 29.83 in
(1010 mb)
SE 6.9 mph
(SE 11 kph)
0.01 in
(0.25 mm)
10SM
20:09
Overcast
Light Rain
72°F / 22°C 68°F / 20°C 88% 29.83 in
(1010 mb)
SSE 8.1 mph
(SSE 13 kph)
0.00 in
(0.00 mm)
10SM
19:54
Overcast
Light Rain
72°F / 22°C 68°F / 20°C 88% 29.83 in
(1010 mb)
SE 6.9 mph
(SE 11 kph)
0.04 in
(1.02 mm)
9SM
19:36
Overcast
Light Rain
72°F / 22°C 68°F / 20°C 88% 29.83 in
(1010 mb)
S 8.1 mph
(S 13 kph)
0.03 in
(0.76 mm)
7SM
19:25
Overcast
Heavy Rain
72°F / 22°C 68°F / 20°C 88% 29.83 in
(1010 mb)
S 10.4 mph
(S 17 kph)
0.02 in
(0.51 mm)
5SM
18:54
Overcast
Light Rain
72°F / 22°C 68°F / 20°C 88% 29.83 in
(1010 mb)
SE 9.2 mph
(SE 15 kph)
0.03 in
(0.76 mm)
7SM
18:41
Overcast
Light Rain
72°F / 22°C 68°F / 20°C 88% 29.83 in
(1010 mb)
SSE 9.2 mph
(SSE 15 kph)
0.03 in
(0.76 mm)
7SM
18:14
Overcast
Rain
72°F / 22°C 70°F / 21°C 94% 29.86 in
(1011 mb)
SSE 10.4 mph
(SSE 17 kph)
0.00 in
(0.00 mm)
5SM
18:04
Overcast
72°F / 22°C 70°F / 21°C 94% 29.83 in
(1010 mb)
SE 9.2 mph
(SE 15 kph)
0.00 in
(0.00 mm)
8SM
17:54
Overcast
Light Rain
72°F / 22°C 70°F / 21°C 94% 29.83 in
(1010 mb)
SE 9.2 mph
(SE 15 kph)
0.02 in
(0.51 mm)
8SM
17:43
Overcast
Light Rain
72°F / 22°C 70°F / 21°C 94% 29.83 in
(1010 mb)
SE 10.4 mph
(SE 17 kph)
0.01 in
(0.25 mm)
7SM
17:38
Overcast
Rain
72°F / 22°C 70°F / 21°C 94% 29.83 in
(1010 mb)
SE 11.5 mph
(SE 19 kph)
0.01 in
(0.25 mm)
4SM
17:01
Overcast
72°F / 22°C 70°F / 21°C 94% 29.83 in
(1010 mb)
SE 9.2 mph
(SE 15 kph)
- 10SM
16:54
Overcast
73°F / 23°C 70°F / 21°C 89% 29.83 in
(1010 mb)
SSE 9.2 mph
(SSE 15 kph)
0.00 in
(0.00 mm)
10SM
15:54
Overcast
72°F / 22°C 70°F / 21°C 94% 29.83 in
(1010 mb)
SE 8.1 mph
(SE 13 kph)
0.15 in
(3.81 mm)
10SM
15:35
Overcast
Light Rain
72°F / 22°C 70°F / 21°C 94% 29.83 in
(1010 mb)
SE 8.1 mph
(SE 13 kph)
0.15 in
(3.81 mm)
10SM
15:21
Overcast
Light Rain
72°F / 22°C 70°F / 21°C 94% 29.86 in
(1011 mb)
SE 9.2 mph
(SE 15 kph)
0.15 in
(3.81 mm)
6SM
15:07
Overcast
Heavy Rain
72°F / 22°C 70°F / 21°C 94% 29.86 in
(1011 mb)
SE 9.2 mph
(SE 15 kph)
0.14 in
(3.56 mm)
3SM
15:02
Overcast
Heavy Rain
72°F / 22°C 70°F / 21°C 94% 29.86 in
(1011 mb)
SE 8.1 mph
(SE 13 kph)
0.04 in
(1.02 mm)
3/4SM
14:54
Overcast
Heavy Rain
72°F / 22°C 68°F / 20°C 88% 29.86 in
(1011 mb)
SSE 10.4 mph
(SSE 17 kph)
0.34 in
(8.64 mm)
2 1/2SM
14:26
Overcast
Heavy Rain
72°F / 22°C 68°F / 20°C 88% 29.86 in
(1011 mb)
SSE 11.5 mph
(SSE 19 kph)
0.11 in
(2.79 mm)
1 1/2SM
14:15
Overcast
Heavy Rain
73°F / 23°C 68°F / 20°C 83% 29.86 in
(1011 mb)
SSE 11.5 mph
(SSE 19 kph)
0.07 in
(1.78 mm)
3SM
14:09
Overcast
Light Rain
73°F / 23°C 68°F / 20°C 83% 29.89 in
(1012 mb)
SSE 10.4 mph
(SSE 17 kph)
0.05 in
(1.27 mm)
6SM
13:54
Overcast
Light Rain
73°F / 23°C 66°F / 19°C 78% 29.86 in
(1011 mb)
SSE 10.4 mph
(SSE 17 kph)
0.02 in
(0.51 mm)
7SM
13:45
Overcast
Light Rain
73°F / 23°C 66°F / 19°C 78% 29.89 in
(1012 mb)
SSE 15 mph
(SSE 24 kph)
0.02 in
(0.51 mm)
7SM
13:33
Overcast
Light Rain
73°F / 23°C 68°F / 20°C 83% 29.89 in
(1012 mb)
S 16.1 mph
(S 26 kph)
- 4SM
13:18
Overcast
Light Rain
75°F / 24°C 66°F / 19°C 74% 29.89 in
(1012 mb)
S 19.6 mph
(S 32 kph)
0.00 in
(0.00 mm)
6SM
12:54
Overcast
Light Rain
75°F / 24°C 68°F / 20°C 78% 29.89 in
(1012 mb)
SSE 15 mph
(SSE 24 kph)
0.00 in
(0.00 mm)
10SM
12:32
Overcast
Light Rain
75°F / 24°C 68°F / 20°C 78% 29.89 in
(1012 mb)
S 17.3 mph
(S 28 kph)
0.00 in
(0.00 mm)
10SM
11:54
Overcast
75°F / 24°C 70°F / 21°C 83% 29.92 in
(1013 mb)
SSE 15 mph
(SSE 24 kph)
0.00 in
(0.00 mm)
10SM
11:47
Overcast
75°F / 24°C 70°F / 21°C 83% 29.92 in
(1013 mb)
SSE 13.8 mph
(SSE 22 kph)
0.00 in
(0.00 mm)
10SM
11:11
Overcast
73°F / 23°C 70°F / 21°C 89% 29.95 in
(1014 mb)
SSE 11.5 mph
(SSE 19 kph)
0.00 in
(0.00 mm)
10SM
10:54
Overcast
73°F / 23°C 70°F / 21°C 89% 29.95 in
(1014 mb)
S 13.8 mph
(S 22 kph)
0.03 in
(0.76 mm)
7SM
10:44
Overcast
Heavy Rain
75°F / 24°C 68°F / 20°C 78% 29.95 in
(1014 mb)
S 19.6 mph
(S 32 kph)
0.00 in
(0.00 mm)
1 1/2SM
10:41
Overcast
Light Rain
77°F / 25°C 68°F / 20°C 74% 29.95 in
(1014 mb)
SSE 21.9 mph
(SSE 35 kph)
0.00 in
(0.00 mm)
2SM
10:25
Overcast
75°F / 24°C 70°F / 21°C 83% 29.95 in
(1014 mb)
SSE 13.8 mph
(SSE 22 kph)
- 10SM
09:54
Overcast
75°F / 24°C 70°F / 21°C 83% 29.95 in
(1014 mb)
SSE 13.8 mph
(SSE 22 kph)
0.01 in
(0.25 mm)
10SM
09:41
Overcast
Light Rain
75°F / 24°C 70°F / 21°C 83% 29.98 in
(1015 mb)
SSE 10.4 mph
(SSE 17 kph)
0.00 in
(0.00 mm)
7SM
09:24
Overcast
Light Rain
75°F / 24°C 68°F / 20°C 78% 29.98 in
(1015 mb)
SSE 16.1 mph
(SSE 26 kph)
0.00 in
(0.00 mm)
3SM
09:03
Overcast
77°F / 25°C 68°F / 20°C 74% 29.98 in
(1015 mb)
SSE 13.8 mph
(SSE 22 kph)
- 10SM
08:54
Overcast
77°F / 25°C 68°F / 20°C 74% 29.98 in
(1015 mb)
SSE 11.5 mph
(SSE 19 kph)
- 10SM
07:54
Mostly Cloudy
73°F / 23°C 66°F / 19°C 78% 29.98 in
(1015 mb)
SE 10.4 mph
(SE 17 kph)
- 10SM
06:54
Mostly Cloudy
72°F / 22°C 66°F / 19°C 83% 29.98 in
(1015 mb)
SE 4.6 mph
(SE 7 kph)
- 10SM
06:41
Mostly Cloudy
70°F / 21°C 66°F / 19°C 88% 29.98 in
(1015 mb)
ESE 5.8 mph
(ESE 9 kph)
- 10SM
05:54
Mostly Cloudy
70°F / 21°C 64°F / 18°C 83% 29.98 in
(1015 mb)
E 6.9 mph
(E 11 kph)
- 10SM
04:54
Mostly Cloudy
68°F / 20°C 64°F / 18°C 88% 30.01 in
(1016 mb)
E 4.6 mph
(E 7 kph)
- 10SM
04:43
Mostly Cloudy
70°F / 21°C 64°F / 18°C 83% 30.01 in
(1016 mb)
SE 4.6 mph
(SE 7 kph)
- 10SM
03:54
Mostly Cloudy
70°F / 21°C 64°F / 18°C 83% 30.01 in
(1016 mb)
SE 5.8 mph
(SE 9 kph)
- 10SM
02:54
Mostly Cloudy
72°F / 22°C 64°F / 18°C 78% 30.01 in
(1016 mb)
SE 6.9 mph
(SE 11 kph)
- 10SM
01:54
Mostly Cloudy
70°F / 21°C 64°F / 18°C 83% 30.04 in
(1017 mb)
SE 4.6 mph
(SE 7 kph)
- 10SM
00:54
Mostly Cloudy
70°F / 21°C 64°F / 18°C 83% 30.06 in
(1018 mb)
ESE 6.9 mph
(ESE 11 kph)
- 10SM
Time Weather Temperature Dewpoint Humidity Pressure Winds Precip Visibility


Weather for websites

WeatherForYou.com, LLC is not responsible for any damages or problems caused by this service. Current weather conditions are obtained from the closest station including government and personal stations which may have varying degrees of accuracy. Weather forecasts are derived from the NOAA NDFD. Like all things, this site belongs to Jesus Christ... He just trusts me to maintain it. If you have any questions or comments email webmaster@weatherforyou.com

Copyright © 2014, WeatherForYou.com LLC. All rights reserved.